User: anonymous   Login
Location: ????
(30.2663°N, 31.2484°E)
Time: 13:23:26
(UTC+00:00)
Language:

FENGYUN 1C DEB - Orbit

View from above orbital plane
View from above orbital plane
View from above satellite
View from above satellite

Ground track
Ground track

The orbit data is extracted from the following two-line orbital elements,

1 30820U 99025AVE 24193.76131831  .00004838  00000-0  25433-2 0  9999
2 30820  98.6773 295.6438 0055953 237.3605 276.6243 14.13712110890676
Epoch (UTC): 11 July 2024 18:16:17
Eccentricity: 0.0055953
inclination: 98.6773°
perigee height: 806 km
apogee height: 887 km
right ascension of ascending node: 295.6438°
argument of perigee: 237.3605°
revolutions per day: 14.13712110
mean anomaly at epoch: 276.6243°
orbit number at epoch: 89067

The dashed part of the orbit path shows where the satellite is in the earth's shadow,  

DLR